Flag for China Weather past 2 weeks in Taiyuan, Shanxi, China

Now
34 °F

Sunny.


Feels Like: 34 °F
Forecast: 16 / 34 °F
Wind: 1 mph from Southwest

Location: Taiyuan Airport

Current Time: Jan 31, 2015 at 4:57:39 PM

Latest Report: Jan 31, 2015 at 4:30 PM


Visibility: 10 mi

Pressure: 30.42 "Hg

Humidity: 23%

Dew point: 0 °F

Location of TaiyuanLocation

Historic Weather in Taiyuan — Graph

°F

Taiyuan temperature yesterday

Maximum temperature yesterday: 34 °F (at 3:30 PM)
Minimum temperature yesterday: 10 °F (at 7:30 AM)
Average temperature yesterday: 22 °F

Past Weeks' High & Low Weather Summary

 TemperatureHumidityPressure
High48 °F (Jan 20, 3:00 PM)93% (Jan 24, 3:30 PM)30.57 "Hg (Jan 24, 3:30 PM)
Low9 °F (Jan 17, 7:30 AM)11% (Jan 27, 5:00 PM)29.92 "Hg (Jan 23, 2:30 PM)
Average27 °F43%30.25 "Hg
* Reported Jan 16 3:00 PM — Jan 31 3:30 PM, Taiyuan, Weather by CustomWeather, © 2014

Note: Actual official high and low records may vary slightly from our data, if they occured in-between our weather recording intervals... More about our weather records

Advertising

Taiyuan weather history for previous 24 hours

 ConditionsComfort  
Time TempWeatherWind HumidityBarometerVisibility
3:30 PM
Jan 31
34 °FPassing clouds.6 mph19%30.42 "HgN/A
3:00 PM34 °FPassing clouds.6 mph19%30.42 "HgN/A
2:30 PM34 °FPassing clouds.6 mph18%30.42 "HgN/A
2:00 PM34 °FSunny.3 mph16%30.45 "Hg10 mi
1:30 PM34 °FSunny.1 mph16%30.45 "Hg10 mi
1:00 PM34 °FSunny.1 mph16%30.48 "Hg10 mi
12:30 PM30 °FSunny.3 mph26%30.48 "Hg10 mi
12:00 PM28 °FSunny.3 mph29%30.51 "Hg10 mi
11:00 AM27 °FSunny.1 mph31%30.54 "Hg10 mi
10:30 AM23 °FSunny.1 mph36%30.54 "Hg10 mi
10:00 AM21 °FSunny.1 mph35%30.54 "Hg10 mi
9:30 AM19 °FSunny.1 mph42%30.54 "Hg10 mi
9:00 AM18 °FClear.3 mph45%30.54 "Hg5 mi
8:30 AM16 °FClear.3 mph48%30.57 "Hg5 mi
8:00 AM14 °FClear.3 mph48%30.54 "Hg5 mi
7:30 AM9 °FClear.3 mph61%30.54 "Hg4 mi
7:00 AM10 °FClear.1 mph61%30.54 "Hg10 mi
6:30 AM10 °FClear.1 mph56%30.51 "Hg10 mi
6:00 AM12 °FClear.1 mph52%30.51 "Hg10 mi
5:30 AM10 °FClear.1 mph61%30.51 "Hg10 mi
5:00 AM12 °FClear.1 mph57%30.51 "Hg10 mi
4:30 AM12 °FClear.1 mph62%30.51 "Hg10 mi
4:00 AM14 °FClear.1 mph57%30.51 "Hg10 mi
3:30 AM14 °FClear.1 mph62%30.51 "Hg10 mi
3:00 AM16 °FClear.1 mph57%30.54 "Hg10 mi
2:30 AM16 °FClear.1 mph57%30.54 "Hg10 mi
2:00 AM14 °FClear.1 mph52%30.54 "Hg10 mi
1:30 AM16 °FClear.No wind53%30.54 "Hg10 mi
1:00 AM14 °FClear.1 mph62%30.54 "Hg10 mi
12:30 AM16 °FClear.1 mph57%30.54 "Hg10 mi
12:00 AM16 °FClear.No wind53%30.51 "Hg10 mi
11:30 PM
Jan 30
18 °FClear.1 mph49%30.51 "Hg10 mi
11:00 PM18 °FClear.1 mph53%30.51 "Hg10 mi
10:30 PM19 °FClear.3 mph45%30.51 "Hg10 mi
10:00 PM19 °FClear.1 mph42%30.51 "Hg10 mi
9:30 PM21 °FClear.6 mph42%30.48 "Hg10 mi
9:00 PM21 °FPassing clouds.3 mph42%30.48 "HgN/A
8:30 PM21 °FClear.6 mph45%30.48 "Hg10 mi
8:00 PM25 °FClear.1 mph33%30.48 "Hg10 mi
7:30 PM25 °FClear.No wind39%30.48 "Hg4 mi
7:00 PM25 °FClear.1 mph39%30.45 "Hg4 mi
6:30 PM28 °FClear.3 mph34%30.45 "Hg4 mi
6:00 PM27 °FClear.3 mph39%30.42 "Hg10 mi
5:30 PM30 °FSunny.3 mph31%30.42 "Hg10 mi
5:00 PM30 °FSunny.3 mph24%30.42 "Hg10 mi
4:30 PM32 °FPassing clouds.6 mph17%30.42 "HgN/A
4:00 PM32 °FSunny.10 mph15%30.42 "Hg10 mi
Weather by CustomWeather, © 2014

See weather overviewHow to use our weather pages